Time,TemperatureF,DewpointF,PressureIn,WindDirection,WindDirectionDegrees,WindSpeedMPH,WindSpeedGustMPH,Humidity,HourlyPrecipIn,Conditions,Clouds,dailyrainin,SoftwareType,DateUTC
2013-04-04 00:00:00,31.8,18.7,30.29,WNW,291,10.0,23.0,58,0.00,CLR,,0.00,WeatherDisplay:10.37,2013-04-04 04:00:00,
2013-04-04 00:10:00,31.5,18.8,30.29,NW,308,9.0,12.0,59,0.00,CLR,,0.00,WeatherDisplay:10.37,2013-04-04 04:10:00,
2013-04-04 00:30:00,31.2,18.9,30.30,NW,307,6.0,12.0,60,0.00,CLR,,0.00,WeatherDisplay:10.37,2013-04-04 04:30:00,
2013-04-04 00:40:00,31.5,19.2,30.29,WNW,303,13.0,21.0,60,0.00,CLR,,0.00,WeatherDisplay:10.37,2013-04-04 04:40:00,
2013-04-04 00:50:00,31.6,19.3,30.29,NW,309,9.0,18.0,60,0.00,CLR,,0.00,WeatherDisplay:10.37,2013-04-04 04:50:00,
2013-04-04 01:00:00,31.7,19.4,30.29,NW,304,13.0,25.0,60,0.00,CLR,,0.00,WeatherDisplay:10.37,2013-04-04 05:00:00,
2013-04-04 01:10:00,31.7,19.8,30.29,NW,307,10.0,20.0,61,0.00,CLR,,0.00,WeatherDisplay:10.37,2013-04-04 05:10:00,
2013-04-04 01:20:00,31.7,20.2,30.29,NW,305,16.0,21.0,62,0.00,CLR,,0.00,WeatherDisplay:10.37,2013-04-04 05:20:00,
2013-04-04 01:30:00,31.7,20.2,30.29,WNW,302,10.0,18.0,62,0.00,CLR,,0.00,WeatherDisplay:10.37,2013-04-04 05:30:00,
2013-04-04 01:40:00,31.5,20.3,30.29,NW,304,8.0,14.0,63,0.00,CLR,,0.00,WeatherDisplay:10.37,2013-04-04 05:40:00,
2013-04-04 01:50:00,31.5,20.7,30.29,NW,310,10.0,14.0,64,0.00,CLR,,0.00,WeatherDisplay:10.37,2013-04-04 05:50:00,
2013-04-04 02:00:00,31.4,20.6,30.29,NW,306,9.0,14.0,64,0.00,CLR,,0.00,WeatherDisplay:10.37,2013-04-04 06:00:00,
2013-04-04 02:10:00,31.2,20.8,30.28,NNW,329,6.0,12.0,65,0.00,CLR,,0.00,WeatherDisplay:10.37,2013-04-04 06:10:00,
2013-04-04 02:20:00,31.1,21.1,30.28,NW,317,8.0,12.0,66,0.00,CLR,,0.00,WeatherDisplay:10.37,2013-04-04 06:20:00,
2013-04-04 02:30:00,31.0,21.0,30.28,WNW,297,8.0,12.0,66,0.00,CLR,,0.00,WeatherDisplay:10.37,2013-04-04 06:30:00,
2013-04-04 02:40:00,31.1,21.1,30.28,NW,310,8.0,14.0,66,0.00,CLR,,0.00,WeatherDisplay:10.37,2013-04-04 06:40:00,
2013-04-04 02:50:00,30.9,21.2,30.28,WNW,301,8.0,11.0,67,0.00,CLR,,0.00,WeatherDisplay:10.37,2013-04-04 06:50:00,
2013-04-04 03:00:00,30.7,21.1,30.27,NW,304,3.0,12.0,67,0.00,CLR,,0.00,WeatherDisplay:10.37,2013-04-04 07:00:00,
2013-04-04 03:10:00,30.7,21.4,30.27,WNW,298,8.0,15.0,68,0.00,CLR,,0.00,WeatherDisplay:10.37,2013-04-04 07:10:00,
2013-04-04 03:20:00,30.4,21.1,30.28,WNW,289,9.0,11.0,68,0.00,CLR,,0.00,WeatherDisplay:10.37,2013-04-04 07:20:00,
2013-04-04 03:30:00,30.4,21.4,30.28,WNW,295,9.0,12.0,69,0.00,CLR,,0.00,WeatherDisplay:10.37,2013-04-04 07:30:00,
2013-04-04 03:40:00,30.3,21.3,30.28,NW,314,5.0,11.0,69,0.00,CLR,,0.00,WeatherDisplay:10.37,2013-04-04 07:40:00,
2013-04-04 03:50:00,30.2,21.6,30.28,NW,311,8.0,11.0,70,0.00,CLR,,0.00,WeatherDisplay:10.37,2013-04-04 07:50:00,
2013-04-04 04:00:00,29.9,21.3,30.28,WNW,291,1.0,8.0,70,0.00,CLR,,0.00,WeatherDisplay:10.37,2013-04-04 08:00:00,
2013-04-04 04:10:00,29.8,21.2,30.28,WNW,300,7.0,14.0,70,0.00,CLR,,0.00,WeatherDisplay:10.37,2013-04-04 08:10:00,
2013-04-04 04:20:00,29.8,21.2,30.29,West,277,2.0,11.0,70,0.00,CLR,,0.00,WeatherDisplay:10.37,2013-04-04 08:20:00,
2013-04-04 04:30:00,29.6,21.3,30.29,WNW,296,6.0,14.0,71,0.00,CLR,,0.00,WeatherDisplay:10.37,2013-04-04 08:30:00,
2013-04-04 04:40:00,29.5,21.3,30.29,WNW,286,8.0,12.0,71,0.00,CLR,,0.00,WeatherDisplay:10.37,2013-04-04 08:40:00,
2013-04-04 04:50:00,29.7,21.7,30.29,WNW,291,6.0,17.0,72,0.00,CLR,,0.00,WeatherDisplay:10.37,2013-04-04 08:50:00,
2013-04-04 05:00:00,29.5,21.6,30.30,WNW,284,6.0,12.0,72,0.00,CLR,,0.00,WeatherDisplay:10.37,2013-04-04 09:00:00,
2013-04-04 05:10:00,29.4,21.5,30.30,WNW,290,8.0,12.0,72,0.00,CLR,,0.00,WeatherDisplay:10.37,2013-04-04 09:10:00,
2013-04-04 05:20:00,29.5,21.6,30.30,West,270,3.0,15.0,72,0.00,CLR,,0.00,WeatherDisplay:10.37,2013-04-04 09:20:00,
2013-04-04 05:30:00,29.3,21.7,30.31,West,281,5.0,9.0,73,0.00,CLR,,0.00,WeatherDisplay:10.37,2013-04-04 09:30:00,
2013-04-04 05:40:00,29.2,21.6,30.32,WNW,282,3.0,12.0,73,0.00,CLR,,0.00,WeatherDisplay:10.37,2013-04-04 09:40:00,
2013-04-04 05:50:00,28.6,21.4,30.32,WSW,254,0.0,8.0,74,0.00,CLR,,0.00,WeatherDisplay:10.37,2013-04-04 09:50:00,
2013-04-04 06:00:00,27.9,21.0,30.33,West,278,0.0,6.0,75,0.00,CLR,,0.00,WeatherDisplay:10.37,2013-04-04 10:00:00,
2013-04-04 06:10:00,26.8,20.5,30.33,West,280,0.0,2.0,77,0.00,CLR,,0.00,WeatherDisplay:10.37,2013-04-04 10:10:00,
2013-04-04 06:20:00,25.8,20.2,30.33,West,280,1.0,3.0,79,0.00,CLR,,0.00,WeatherDisplay:10.37,2013-04-04 10:20:00,
2013-04-04 06:30:00,25.8,20.2,30.33,West,280,0.0,3.0,79,0.00,CLR,,0.00,WeatherDisplay:10.37,2013-04-04 10:30:00,
2013-04-04 06:40:00,25.5,20.2,30.33,West,280,0.0,0.0,80,0.00,CLR,,0.00,WeatherDisplay:10.37,2013-04-04 10:40:00,
2013-04-04 06:50:00,25.5,20.4,30.34,West,280,0.0,0.0,81,0.00,CLR,,0.00,WeatherDisplay:10.37,2013-04-04 10:50:00,
2013-04-04 07:00:00,25.2,20.5,30.34,West,280,0.0,0.0,82,0.00,CLR,,0.00,WeatherDisplay:10.37,2013-04-04 11:00:00,
2013-04-04 07:10:00,25.9,21.2,30.34,West,280,0.0,0.0,82,0.00,CLR,,0.00,WeatherDisplay:10.37,2013-04-04 11:10:00,
2013-04-04 07:20:00,27.3,21.9,30.34,West,280,0.0,0.0,80,0.00,CLR,,0.00,WeatherDisplay:10.37,2013-04-04 11:20:00,
2013-04-04 07:30:00,28.8,23.1,30.35,West,280,0.0,2.0,79,0.00,CLR,,0.00,WeatherDisplay:10.37,2013-04-04 11:30:00,
2013-04-04 07:40:00,31.0,23.3,30.35,SW,233,6.0,9.0,73,0.00,CLR,,0.00,WeatherDisplay:10.37,2013-04-04 11:40:00,
2013-04-04 07:50:00,32.0,23.3,30.35,West,267,7.0,9.0,70,0.00,CLR,,0.00,WeatherDisplay:10.37,2013-04-04 11:50:00,
2013-04-04 08:00:00,32.7,23.6,30.35,West,271,5.0,9.0,69,0.00,CLR,,0.00,WeatherDisplay:10.37,2013-04-04 12:00:00,
2013-04-04 08:10:00,33.3,24.2,30.35,WNW,291,6.0,11.0,69,0.00,CLR,,0.00,WeatherDisplay:10.37,2013-04-04 12:10:00,
2013-04-04 08:20:00,33.4,23.6,30.35,WSW,256,5.0,12.0,67,0.00,CLR,,0.00,WeatherDisplay:10.37,2013-04-04 12:20:00,
2013-04-04 08:30:00,34.1,23.9,30.36,WSW,252,8.0,17.0,66,0.00,CLR,,0.00,WeatherDisplay:10.37,2013-04-04 12:30:00,
2013-04-04 08:40:00,34.3,24.2,30.35,West,261,9.0,14.0,66,0.00,CLR,,0.00,WeatherDisplay:10.37,2013-04-04 12:40:00,
2013-04-04 08:50:00,35.0,24.4,30.35,WSW,254,2.0,11.0,65,0.00,CLR,,0.00,WeatherDisplay:10.37,2013-04-04 12:50:00,
2013-04-04 09:00:00,35.9,24.5,30.35,West,275,15.0,17.0,63,0.00,FEW,,0.00,WeatherDisplay:10.37,2013-04-04 13:00:00,
2013-04-04 09:10:00,36.1,24.3,30.34,WNW,292,10.0,15.0,62,0.00,FEW,,0.00,WeatherDisplay:10.37,2013-04-04 13:10:00,
2013-04-04 09:20:00,36.2,24.0,30.34,WNW,282,5.0,12.0,61,0.00,FEW,,0.00,WeatherDisplay:10.37,2013-04-04 13:20:00,
2013-04-04 09:30:00,37.1,24.1,30.33,West,264,9.0,12.0,59,0.00,FEW,,0.00,WeatherDisplay:10.37,2013-04-04 13:30:00,
2013-04-04 09:40:00,36.9,23.9,30.32,NW,305,9.0,15.0,59,0.00,FEW,,0.00,WeatherDisplay:10.37,2013-04-04 13:40:00,
2013-04-04 09:50:00,37.3,24.3,30.32,NW,307,8.0,14.0,59,0.00,FEW,,0.00,WeatherDisplay:10.37,2013-04-04 13:50:00,
2013-04-04 10:00:00,37.3,23.5,30.32,West,272,3.0,15.0,57,0.00,FEW,,0.00,WeatherDisplay:10.37,2013-04-04 14:00:00,
2013-04-04 10:20:00,38.2,23.9,30.31,West,273,3.0,6.0,56,0.00,FEW,,0.00,WeatherDisplay:10.37,2013-04-04 14:20:00,
2013-04-04 10:30:00,38.4,23.6,30.31,WSW,244,7.0,12.0,55,0.00,FEW,,0.00,WeatherDisplay:10.37,2013-04-04 14:30:00,
2013-04-04 10:40:00,39.3,23.6,30.30,West,279,8.0,12.0,53,0.00,FEW,,0.00,WeatherDisplay:10.37,2013-04-04 14:40:00,
2013-04-04 10:50:00,39.7,23.9,30.30,South,176,2.0,9.0,53,0.00,FEW,,0.00,WeatherDisplay:10.37,2013-04-04 14:50:00,
2013-04-04 11:00:00,40.0,23.8,30.30,South,172,3.0,6.0,52,0.00,FEW,,0.00,WeatherDisplay:10.37,2013-04-04 15:00:00,
2013-04-04 11:10:00,41.1,23.8,30.29,SSW,193,5.0,9.0,50,0.00,CLR,,0.00,WeatherDisplay:10.37,2013-04-04 15:10:00,
2013-04-04 11:20:00,41.2,23.4,30.29,SSW,193,6.0,9.0,49,0.00,CLR,,0.00,WeatherDisplay:10.37,2013-04-04 15:20:00,
2013-04-04 11:30:00,42.2,24.8,30.28,SE,144,5.0,11.0,50,0.00,CLR,,0.00,WeatherDisplay:10.37,2013-04-04 15:30:00,
2013-04-04 11:40:00,41.8,23.5,30.28,SSE,168,9.0,14.0,48,0.00,CLR,,0.00,WeatherDisplay:10.37,2013-04-04 15:40:00,
2013-04-04 11:50:00,42.8,24.0,30.28,South,179,7.0,11.0,47,0.00,CLR,,0.00,WeatherDisplay:10.37,2013-04-04 15:50:00,
2013-04-04 12:00:00,42.2,21.8,30.27,SSW,204,7.0,21.0,44,0.00,CLR,,0.00,WeatherDisplay:10.37,2013-04-04 16:00:00,
2013-04-04 12:10:00,43.8,25.3,30.27,South,180,3.0,12.0,48,0.00,FEW,,0.00,WeatherDisplay:10.37,2013-04-04 16:10:00,
2013-04-04 12:20:00,43.7,23.2,30.26,South,178,5.0,14.0,44,0.00,FEW,,0.00,WeatherDisplay:10.37,2013-04-04 16:20:00,
2013-04-04 12:30:00,44.8,25.3,30.25,SE,130,8.0,11.0,46,0.00,FEW,,0.00,WeatherDisplay:10.37,2013-04-04 16:30:00,
2013-04-04 12:40:00,45.2,24.0,30.24,SE,134,8.0,12.0,43,0.00,FEW,,0.00,WeatherDisplay:10.37,2013-04-04 16:40:00,
2013-04-04 12:50:00,45.1,23.4,30.24,South,188,3.0,11.0,42,0.00,FEW,,0.00,WeatherDisplay:10.37,2013-04-04 16:50:00,
2013-04-04 13:00:00,45.3,24.1,30.23,South,188,6.0,14.0,43,0.00,FEW,,0.00,WeatherDisplay:10.37,2013-04-04 17:00:00,
2013-04-04 13:10:00,46.0,25.3,30.23,SSW,204,5.0,11.0,44,0.00,FEW,,0.00,WeatherDisplay:10.37,2013-04-04 17:10:00,
2013-04-04 13:20:00,46.7,23.7,30.22,South,169,8.0,12.0,40,0.00,FEW,,0.00,WeatherDisplay:10.37,2013-04-04 17:20:00,
2013-04-04 13:30:00,47.7,23.9,30.21,SE,140,9.0,14.0,39,0.00,FEW,,0.00,WeatherDisplay:10.37,2013-04-04 17:30:00,
2013-04-04 13:40:00,48.7,24.8,30.20,SSE,153,9.0,12.0,39,0.00,FEW,,0.00,WeatherDisplay:10.37,2013-04-04 17:40:00,
2013-04-04 13:50:00,48.5,24.0,30.20,SSE,168,10.0,12.0,38,0.00,FEW,,0.00,WeatherDisplay:10.37,2013-04-04 17:50:00,
2013-04-04 14:00:00,48.7,22.9,30.19,South,171,9.0,14.0,36,0.00,FEW,,0.00,WeatherDisplay:10.37,2013-04-04 18:00:00,
2013-04-04 14:10:00,49.1,23.3,30.18,South,184,8.0,11.0,36,0.00,FEW,,0.00,WeatherDisplay:10.37,2013-04-04 18:10:00,
2013-04-04 14:20:00,49.8,23.9,30.17,SSE,158,10.0,12.0,36,0.00,FEW,,0.00,WeatherDisplay:10.37,2013-04-04 18:20:00,
2013-04-04 14:40:00,50.7,22.6,30.16,SSE,150,8.0,12.0,33,0.00,FEW,,0.00,WeatherDisplay:10.37,2013-04-04 18:40:00,
2013-04-04 14:50:00,51.5,23.3,30.15,SE,141,13.0,14.0,33,0.00,FEW,,0.00,WeatherDisplay:10.37,2013-04-04 18:50:00,
2013-04-04 15:00:00,50.9,23.5,30.15,SSE,160,9.0,14.0,34,0.00,FEW,,0.00,WeatherDisplay:10.37,2013-04-04 19:00:00,
2013-04-04 15:10:00,52.3,24.7,30.14,SE,142,9.0,11.0,34,0.00,BKN,,0.00,WeatherDisplay:10.37,2013-04-04 19:10:00,
2013-04-04 15:20:00,52.1,23.1,30.13,SSE,152,12.0,18.0,32,0.00,BKN,,0.00,WeatherDisplay:10.37,2013-04-04 19:20:00,
2013-04-04 15:30:00,53.2,24.0,30.12,SSE,165,6.0,12.0,32,0.00,BKN,,0.00,WeatherDisplay:10.37,2013-04-04 19:30:00,
2013-04-04 15:40:00,52.7,23.6,30.11,SSE,152,7.0,15.0,32,0.00,BKN,,0.00,WeatherDisplay:10.37,2013-04-04 19:40:00,
2013-04-04 15:50:00,53.7,23.7,30.10,SSE,154,13.0,18.0,31,0.00,BKN,,0.00,WeatherDisplay:10.37,2013-04-04 19:50:00,
2013-04-04 16:00:00,53.8,23.1,30.09,SSE,167,12.0,17.0,30,0.00,BKN,,0.00,WeatherDisplay:10.37,2013-04-04 20:00:00,
2013-04-04 16:10:00,54.3,23.5,30.09,SSE,153,8.0,14.0,30,0.00,BKN,,0.00,WeatherDisplay:10.37,2013-04-04 20:10:00,
2013-04-04 16:20:00,54.0,24.0,30.08,South,170,7.0,17.0,31,0.00,BKN,,0.00,WeatherDisplay:10.37,2013-04-04 20:20:00,
2013-04-04 16:30:00,54.7,23.1,30.07,South,178,10.0,14.0,29,0.00,BKN,,0.00,WeatherDisplay:10.37,2013-04-04 20:30:00,
2013-04-04 16:40:00,54.1,22.5,30.07,SSE,162,7.0,14.0,29,0.00,BKN,,0.00,WeatherDisplay:10.37,2013-04-04 20:40:00,
2013-04-04 17:00:00,54.6,22.9,30.06,South,175,9.0,14.0,29,0.00,BKN,,0.00,WeatherDisplay:10.37,2013-04-04 21:00:00,
2013-04-04 17:10:00,54.5,22.9,30.06,South,170,10.0,17.0,29,0.00,BKN,,0.00,WeatherDisplay:10.37,2013-04-04 21:10:00,
2013-04-04 17:20:00,54.4,23.6,30.06,SSE,163,9.0,18.0,30,0.00,BKN,,0.00,WeatherDisplay:10.37,2013-04-04 21:20:00,
2013-04-04 17:30:00,54.2,22.6,30.05,SSE,151,13.0,15.0,29,0.00,BKN,,0.00,WeatherDisplay:10.37,2013-04-04 21:30:00,
2013-04-04 17:40:00,54.0,23.2,30.05,SSE,149,12.0,18.0,30,0.00,BKN,,0.00,WeatherDisplay:10.37,2013-04-04 21:40:00,
2013-04-04 17:50:00,53.8,23.1,30.05,SE,140,13.0,15.0,30,0.00,BKN,,0.00,WeatherDisplay:10.37,2013-04-04 21:50:00,
2013-04-04 18:00:00,53.6,23.7,30.04,SSE,152,10.0,20.0,31,0.00,BKN,,0.00,WeatherDisplay:10.37,2013-04-04 22:00:00,
2013-04-04 18:10:00,53.1,22.5,30.03,SSE,147,9.0,17.0,30,0.00,BKN,,0.00,WeatherDisplay:10.37,2013-04-04 22:10:00,
2013-04-04 18:20:00,52.7,22.9,30.03,SSE,149,9.0,15.0,31,0.00,BKN,,0.00,WeatherDisplay:10.37,2013-04-04 22:20:00,
2013-04-04 18:30:00,52.6,22.0,30.04,SSE,154,8.0,15.0,30,0.00,BKN,,0.00,WeatherDisplay:10.37,2013-04-04 22:30:00,
2013-04-04 18:40:00,52.4,22.6,30.03,SSE,151,5.0,12.0,31,0.00,BKN,,0.00,WeatherDisplay:10.37,2013-04-04 22:40:00,
2013-04-04 18:50:00,52.2,21.7,30.03,SSE,160,14.0,17.0,30,0.00,BKN,,0.00,WeatherDisplay:10.37,2013-04-04 22:50:00,
2013-04-04 19:00:00,52.0,22.3,30.03,SSE,155,6.0,12.0,31,0.00,BKN,,0.00,WeatherDisplay:10.37,2013-04-04 23:00:00,
2013-04-04 19:10:00,51.7,22.8,30.03,SSE,162,7.0,15.0,32,0.00,BKN,,0.00,WeatherDisplay:10.37,2013-04-04 23:10:00,
2013-04-04 19:20:00,51.3,22.4,30.03,SSE,156,7.0,15.0,32,0.00,BKN,,0.00,WeatherDisplay:10.37,2013-04-04 23:20:00,
2013-04-04 19:30:00,51.2,22.3,30.03,SSE,161,14.0,14.0,32,0.00,BKN,,0.00,WeatherDisplay:10.37,2013-04-04 23:30:00,
2013-04-04 19:40:00,51.0,22.9,30.03,SSE,165,5.0,11.0,33,0.00,BKN,,0.00,WeatherDisplay:10.37,2013-04-04 23:40:00,
2013-04-04 19:50:00,50.5,23.1,30.03,SSE,155,5.0,8.0,34,0.00,BKN,,0.00,WeatherDisplay:10.37,2013-04-04 23:50:00,
2013-04-04 20:00:00,50.4,23.0,30.02,SSE,157,8.0,15.0,34,0.00,BKN,,0.00,WeatherDisplay:10.37,2013-04-05 00:00:00,
2013-04-04 20:10:00,50.3,23.7,30.02,South,170,7.0,15.0,35,0.00,BKN,,0.00,WeatherDisplay:10.37,2013-04-05 00:10:00,
2013-04-04 20:20:00,50.2,23.5,30.02,SSE,162,5.0,14.0,35,0.00,BKN,,0.00,WeatherDisplay:10.37,2013-04-05 00:20:00,
2013-04-04 20:30:00,50.1,23.5,30.02,SSE,165,6.0,15.0,35,0.00,BKN,,0.00,WeatherDisplay:10.37,2013-04-05 00:30:00,
2013-04-04 20:40:00,49.9,24.0,30.02,SSE,157,6.0,14.0,36,0.00,BKN,,0.00,WeatherDisplay:10.37,2013-04-05 00:40:00,
2013-04-04 20:50:00,50.0,23.4,30.02,South,177,7.0,17.0,35,0.00,BKN,,0.00,WeatherDisplay:10.37,2013-04-05 00:50:00,
2013-04-04 21:00:00,50.0,22.7,30.02,South,170,6.0,17.0,34,0.00,BKN,,0.00,WeatherDisplay:10.37,2013-04-05 01:00:00,
2013-04-04 21:10:00,49.6,23.0,30.02,SSE,163,5.0,14.0,35,0.00,BKN,,0.00,WeatherDisplay:10.37,2013-04-05 01:10:00,
2013-04-04 21:20:00,49.6,23.0,30.02,SSE,161,5.0,14.0,35,0.00,BKN,,0.00,WeatherDisplay:10.37,2013-04-05 01:20:00,
2013-04-04 21:30:00,49.2,22.7,30.01,SSE,152,7.0,12.0,35,0.00,BKN,,0.00,WeatherDisplay:10.37,2013-04-05 01:30:00,
2013-04-04 21:40:00,48.9,23.1,30.01,SSE,160,7.0,12.0,36,0.00,BKN,,0.00,WeatherDisplay:10.37,2013-04-05 01:40:00,
2013-04-04 21:50:00,48.5,23.4,30.01,SSE,160,3.0,12.0,37,0.00,BKN,,0.00,WeatherDisplay:10.37,2013-04-05 01:50:00,
2013-04-04 22:00:00,48.5,23.4,30.00,SSE,159,6.0,12.0,37,0.00,BKN,,0.00,WeatherDisplay:10.37,2013-04-05 02:00:00,
2013-04-04 22:10:00,48.3,23.2,30.00,SSE,152,7.0,12.0,37,0.00,BKN,,0.00,WeatherDisplay:10.37,2013-04-05 02:10:00,
2013-04-04 22:20:00,48.1,23.0,30.00,SE,146,7.0,9.0,37,0.00,BKN,,0.00,WeatherDisplay:10.37,2013-04-05 02:20:00,
2013-04-04 22:30:00,47.8,23.4,29.99,SSE,157,6.0,11.0,38,0.00,BKN,,0.00,WeatherDisplay:10.37,2013-04-05 02:30:00,
2013-04-04 22:40:00,47.4,23.7,29.99,SSE,149,3.0,11.0,39,0.00,BKN,,0.00,WeatherDisplay:10.37,2013-04-05 02:40:00,
2013-04-04 22:50:00,47.2,23.5,29.99,SE,141,8.0,14.0,39,0.00,BKN,,0.00,WeatherDisplay:10.37,2013-04-05 02:50:00,
2013-04-04 23:00:00,47.0,23.9,29.99,SSE,149,6.0,14.0,40,0.00,BKN,,0.00,WeatherDisplay:10.37,2013-04-05 03:00:00,
2013-04-04 23:10:00,46.7,24.8,29.98,SE,145,6.0,12.0,42,0.00,BKN,,0.00,WeatherDisplay:10.37,2013-04-05 03:10:00,
2013-04-04 23:20:00,46.5,25.2,29.98,SSE,155,6.0,12.0,43,0.00,BKN,,0.00,WeatherDisplay:10.37,2013-04-05 03:20:00,
2013-04-04 23:30:00,46.0,24.8,29.98,SSE,153,7.0,11.0,43,0.00,BKN,,0.00,WeatherDisplay:10.37,2013-04-05 03:30:00,
2013-04-04 23:40:00,45.8,25.1,29.98,SSE,154,6.0,11.0,44,0.00,BKN,,0.00,WeatherDisplay:10.37,2013-04-05 03:40:00,
2013-04-04 23:50:00,45.6,25.5,29.97,SSE,163,8.0,12.0,45,0.00,BKN,,0.00,WeatherDisplay:10.37,2013-04-05 03:50:00,